{"data":{"norad_id":66381,"intl_designator":"2025-257B","name":"STARLINK-35158","alt_names":[],"object_type":"PAYLOAD","status":"ACTIVE","operator":null,"country":"US","launch_date":"2025-11-09","launch_site_code":"AFETR","launch_vehicle":null,"mission":null,"orbit_class":"UNKNOWN","rcs_meters":null,"size_class":null,"mass_kg":null,"dimensions":null,"purposes":["comms"],"wikipedia_slug":null,"has_3d_model":false,"image_url":null,"decayed_at":null,"tle_current":{"epoch":"2026-09-20T12:59:49.324704Z","epoch_age_seconds":89852,"freshness":"FRESH","line1":"1 66381U 25257B   26263.54154311  .00025235  00000+0  75557-3 0  9996","line2":"2 66381  53.1594  29.3057 0001172  91.5219 268.5918 15.34396964 49605","mean_motion":15.34396964,"eccentricity":0.0001172,"inclination_deg":53.1594,"raan_deg":29.3057,"arg_perigee_deg":91.5219,"mean_anomaly_deg":268.5918,"bstar":0.00075557,"rev_number":4960,"period_min":93.847943771088,"perigee_km":461.91051632007,"apogee_km":463.51401138752,"semimajor_km":6840.8492638538,"source":"CELESTRAK","updated_at":"2026-09-21T09:00:35.885121Z"}}}